SCP
0 0 0 0 0 0 0 0 0 0 0 0 0 0 0 0 0 0 0 0 0 0 0 0 0 0 0 0 0 0 0 0 0 0 0 0 0 0 0 0 0 0 0 0
0 0 0 0 0 0 0 0 0 0 0 0 0 0 0 0 0 0 0 0 0 0 0 0 0 0 0 0 0 0 0 0 0 0 0 0 0 0 0 0 0 0 0 0
0 0 0 0 0 0 0 0 0 0 0 0 0 -0 0 0 0 0 0 0 0 0 0 0 0 0 0 0 0 0 0 0 0 0 0 0 0 0 0 0 0 0 0 0
0 0 0 0 0 0 0 0 0 0 0 0 -0 -0 0 0 -0 -0 -0 0 0 0 0 0 0 0 0 0 0 0 0 0 0 0 0 0 0 0 0 0 0 0 0 0
0 0 0 0 0 -0 -0 0 0 0 0 0 0 0 0 0 -0 -0 -0 0 0 0 0 0 0 0 0 0 0 0 0 0 0 0 0 0 0 0 0 0 0 0 0 0
0 0 0 0 0 0 -0 0 0 0 -0 -0 -0 0 0 0 -0 -0 -0 0 0 0 0 0 0 0 0 0 0 0 0 0 0 0 0 0 0 0 0 0 0 0 0 0
0 0 0 0 0 0 0 -0 -0 -0 -0 0 0 0 0 0 0 0 0 0 0 0 0 0 0 0 0 0 0 0 0 0 0 0 0 0 0 0 0 0 0 0 0 0
0 0 0 0 0 0 0 0 -0 -0 0 0 0 0 0 0 0 0 0 0 0 0 0 0 0 0 0 0 0 0 0 0 0 0 0 0 0 0 0 0 0 0 0 0
0 0 0 0 0 0 0 0 -0 -0 0 0 0 0 0 0 0 0 0 0 0 0 0 0 0 0 0 0 0 0 0 0 0 0 0 0 0 0 0 0 0 0 0 0
0 0 0 0 0 0 0 0 0 -0 0 0 0 0 0 0 0 0 0 0 0 0 0 0 0 0 0 0 0 0 0 0 0 0 0 0 0 0 0 0 0 0 0 0
0 0 0 0 0 0 0 0 0 -0 0 0 0 0 0 0 0 0 0 0 0 0 0 0 0 0 0 0 0 0 0 0 0 0 0 0 0 0 0 0 0 0 0 0
0 0 0 0 0 0 0 0 0 0 0 0 0 0 0 0 0 0 0 0 0 0 0 0 0 0 0 0 0 0 0 0 0 0 0 0 0 0 0 0 0 0 0 0
0 0 0 0 0 0 0 0 0 0 0 0 0 0 0 0 0 0 0 0 0 0 0 0 0 0 0 0 0 0 0 0 0 0 0 0 0 0 0 0 0 0 0 0
0 0 0 0 0 0 0 0 0 0 0 0 0 0 0 0 0 0 0 0 0 0 0 0 0 0 0 0 0 0 0 0 0 0 0 0 0 0 0 0 0 0 0 0
0 0 0 0 0 0 0 0 0 0 0 0 0 0 0 0 0 0 0 0 0 0 0 0 0 0 0 0 0 0 0 0 0 0 0 0 0 0 0 0 0 0 0 0
0 0 0 0 0 0 0 0 0 0 0 0 0 0 -0 -0 0 0 0 0 0 0 0 0 0 0 0 0 0 0 0 0 0 0 0 0 0 0 0 0 0 0 0 0
0 0 0 0 0 0 0 0 0 0 0 0 -0 -0 -0 -0 -0 -0 0 0 0 0 0 0 0 0 0 0 0 0 0 0 0 0 0 0 0 0 0 0 0 0 0 0
0 0 0 0 0 -0 0 0 0 0 0 0 0 0 -0 -0 -0 -0 -0 -0 -0 0 0 0 0 0 0 0 0 0 0 0 0 0 0 0 0 0 0 0 0 0 0 0
0 0 0 0 0 0 0 0 0 0 0 0 0 0 0 0 0 0 0 0 0 0 0 0 0 0 0 0 0 0 0 0 0 0 0 0 0 0 0 0 0 0 0 0
0 0 0 0 0 0 0 0 0 0 0 0 0 0 0 0 0 0 0 0 0 0 0 0 0 0 0 0 0 0 0 0 0 0 0 0 0 0 0 0 0 0 0 0
0 0 0 0 0 0 0 0 0 0 0 0 0 0 0 0 0 0 0 0 0 0 0 0 0 0 0 0 0 0 0 0 0 0 0 0 0 0 0 0 0 0 0 0
0 0 0 0 0 0 0 0 0 0 0 0 0 0 0 0 0 0 -0 0 0 0 0 0 0 0 0 0 0 0 0 0 0 0 0 0 0 0 0 0 0 0 0 0
0 0 0 0 0 0 0 0 0 0 0 0 0 0 0 0 0 0 0 0 0 0 0 0 0 0 0 0 0 0 0 0 0 0 0 0 0 0 0 0 0 0 0 0
0 0 0 0 0 0 0 0 0 0 0 0 0 0 0 0 0 0 0 0 0 0 0 0 0 0 0 0 0 0 0 0 0 0 0 0 0 0 0 0 0 0 0 0
0 0 0 0 0 0 0 0 0 0 0 0 0 0 0 0 0 0 0 0 0 0 0 0 0 0 0 0 0 0 0 0 0 0 0 0 0 0 0 0 0 0 0 0
0 0 0 0 0 0 0 0 0 0 0 0 0 0 0 0 0 0 0 0 0 0 0 0 0 0 0 0 0 0 0 0 0 0 0 0 0 0 0 0 0 0 0 0
0 0 0 0 0 0 0 0 0 0 0 0 0 0 0 0 0 0 0 0 0 0 0 0 0 0 0 0 0 0 0 0 0 0 0 0 0 0 0 0 0 0 0 0
Wind_Speed
8 8 6 6 6 5 7 8 7 7 7 7 4 4 4 4 4 4 4 5 5 4 3 3 3 3 3 3 2 2 1 1 2 2 2 2 2 2 2 3 3 3 3 3
7 7 6 7 7 7 8 7 9 9 8 4 3 3 4 3 3 4 4 5 5 5 4 4 4 4 4 3 3 2 1 2 2 1 2 2 2 2 2 2 2 3 3 3
4 3 4 6 6 6 5 3 4 7 7 3 4 4 4 3 3 4 4 4 5 5 4 3 4 4 4 3 3 2 2 2 1 1 2 2 2 2 2 2 2 2 3 3
3 2 6 5 0 1 3 4 4 4 4 3 3 4 4 2 1 3 4 5 5 5 5 4 4 4 4 3 2 2 2 2 1 1 1 1 2 2 2 2 2 2 3 3
2 4 6 2 1 1 2 5 2 3 4 4 4 4 2 1 2 3 3 4 4 4 4 4 4 4 4 3 2 2 2 2 2 2 1 2 2 2 2 2 2 2 2 3
3 4 5 3 1 1 1 4 2 2 3 3 3 3 3 2 3 4 3 3 4 4 3 4 4 4 3 3 3 3 3 2 2 2 2 2 2 2 1 1 2 2 2 2
5 5 5 2 1 2 2 5 3 2 2 2 3 4 3 4 4 3 3 3 3 3 3 3 4 3 3 3 3 4 3 2 2 1 2 2 2 1 1 1 1 2 2 2
4 5 7 0 2 3 4 3 2 3 2 2 3 3 4 4 3 3 3 3 3 3 4 3 3 3 3 4 4 3 2 2 2 1 1 1 1 1 1 2 2 2 2 2
5 6 2 2 3 2 1 3 3 3 3 3 4 5 4 4 4 4 3 3 3 3 4 4 3 2 3 4 3 2 2 2 1 1 1 1 1 2 2 2 2 2 2 2
4 5 3 2 2 2 2 3 3 3 3 3 4 5 5 4 4 3 3 3 3 3 3 4 3 3 3 4 2 2 2 1 1 1 1 1 1 1 1 2 2 2 2 2
5 5 4 3 3 3 3 3 3 3 3 3 4 5 5 4 4 3 3 3 2 3 3 4 4 4 4 3 2 1 1 1 1 1 0 1 1 1 1 1 2 2 2 2
6 4 4 4 3 3 3 4 3 3 4 3 3 4 4 4 3 3 2 2 3 3 3 4 4 4 4 3 2 1 1 1 1 0 0 0 0 1 2 2 3 3 3 3
4 4 4 4 3 2 3 3 3 3 4 4 3 3 3 3 3 2 2 3 3 3 3 3 3 4 4 3 2 1 1 1 1 0 0 0 0 0 1 2 3 3 4 4
2 2 3 3 3 3 3 3 2 3 3 2 2 2 2 2 3 2 2 3 3 3 3 3 3 4 4 2 1 1 1 1 1 1 1 1 1 1 1 1 2 2 3 4
3 2 3 3 3 3 2 2 2 3 3 2 2 2 2 2 3 3 2 2 2 2 3 3 3 4 3 2 2 1 1 1 1 1 1 1 1 1 1 1 1 2 2 3
4 3 2 2 3 3 3 3 3 3 3 3 2 2 2 2 2 3 3 2 2 3 3 3 4 4 3 2 2 1 1 2 2 1 1 1 1 1 1 1 1 1 2 2
2 2 3 3 4 3 3 3 3 3 3 3 3 2 2 2 2 3 3 2 2 2 3 3 4 4 2 2 1 1 1 2 3 1 1 1 1 1 1 1 1 2 2 2
2 3 3 3 3 3 3 3 3 3 3 2 2 2 2 2 2 3 3 3 3 3 3 3 3 3 2 2 1 1 1 1 1 1 1 1 1 1 1 1 2 2 2 3
2 2 2 2 2 2 2 2 3 2 2 2 2 2 2 2 2 2 3 3 4 4 4 3 5 3 2 3 2 1 1 1 1 1 1 2 2 1 1 1 2 2 2 2
3 3 2 2 2 1 2 2 2 2 2 1 1 2 2 2 2 2 2 3 3 3 3 4 4 3 2 3 3 1 1 2 1 1 1 1 1 1 1 2 2 2 2 2
3 3 2 2 2 2 2 2 1 2 2 2 1 2 3 3 3 2 2 3 4 3 4 6 3 2 2 3 3 1 1 1 1 1 1 2 2 2 2 2 2 3 3 3
2 2 2 2 2 2 2 2 2 2 2 2 2 2 3 3 3 3 3 3 4 6 4 3 3 4 5 4 1 1 1 2 2 2 2 2 2 2 2 3 3 3 3 3
2 2 2 2 2 2 3 2 2 2 2 3 3 3 3 3 3 3 4 3 3 6 4 3 5 8 7 3 1 2 2 2 2 2 2 3 3 3 3 3 3 3 3 4
2 2 2 2 2 2 3 3 3 2 3 3 3 3 3 3 3 2 3 6 8 8 4 6 9 9 7 2 2 2 2 3 3 3 3 3 3 3 3 3 4 4 4 4
2 2 2 2 2 2 3 3 3 3 3 3 3 3 3 3 3 3 3 4 8 8 4 6 9 9 4 2 2 2 3 3 4 3 3 3 3 3 4 4 4 4 4 5
2 2 2 2 2 2 2 2 3 3 3 3 3 3 3 3 3 3 3 4 5 7 5 3 4 5 3 2 3 3 3 4 4 4 3 4 4 4 4 4 5 5 5 5
1 1 1 2 2 2 2 2 3 3 3 4 4 4 3 3 3 3 4 4 4 4 4 3 3 3 3 3 3 3 3 3 4 4 4 4 4 4 4 5 5 5 5 5
Wind_Direction
266 277 271 263 262 236 221 228 241 263 266 280 297 309 315 324 334 348 355 357 352 343 340 344 347 344 346 345 348 341 310 264 244 221 201 186 188 192 182 180 183 175 178 182
272 265 264 269 264 243 239 245 253 269 276 286 303 319 318 318 332 341 346 347 345 344 345 344 340 336 337 335 334 331 294 267 254 224 199 192 195 194 186 182 177 174 184 185
267 283 306 269 245 223 218 218 220 247 261 293 316 313 305 306 329 337 338 334 334 334 331 331 328 328 323 319 325 326 307 297 285 237 199 190 195 186 183 184 178 186 195 193
273 312 245 237 152 184 213 236 232 251 279 293 291 301 296 289 327 343 340 337 334 334 336 333 334 333 324 323 322 319 308 293 277 249 215 191 184 193 195 190 188 193 203 203
239 254 265 255 257 155 210 267 241 260 287 308 323 314 288 2 10 331 320 317 316 318 324 329 333 331 324 318 316 308 297 286 268 243 224 208 204 204 197 189 194 204 206 203
241 252 255 255 322 30 113 266 300 301 277 296 328 302 283 326 328 316 319 319 316 320 326 326 326 329 326 315 310 294 285 283 281 242 221 220 216 213 214 210 210 211 220 213
238 247 256 271 303 92 174 256 316 303 277 274 259 253 277 305 309 308 312 313 320 320 316 313 320 328 321 314 299 293 296 294 290 271 240 225 215 210 196 208 199 203 215 223
213 232 248 274 118 188 232 296 314 307 300 278 273 285 297 304 309 317 317 315 313 312 311 314 322 326 314 305 300 302 302 300 295 284 269 251 205 201 192 186 192 202 207 220
208 224 235 168 189 236 308 302 305 309 307 293 288 292 298 300 302 306 307 306 306 308 311 314 319 321 307 305 308 307 309 306 303 312 300 277 220 199 189 190 197 212 212 221
255 255 255 238 249 287 300 292 302 303 296 292 284 293 298 294 296 301 304 304 310 315 314 314 319 318 305 310 317 313 307 306 304 296 299 293 265 225 200 199 205 221 222 227
252 272 291 256 261 281 296 302 304 306 293 282 282 289 291 292 292 294 300 309 312 312 308 309 316 318 318 322 325 319 307 301 303 306 268 268 292 272 256 236 238 231 228 230
242 246 249 268 280 291 293 292 296 302 303 303 292 288 292 293 294 293 300 309 314 312 310 314 321 320 320 323 323 298 297 299 285 256 281 319 340 336 328 316 308 293 281 271
249 280 267 277 295 312 284 290 300 295 289 295 303 296 292 297 305 315 315 315 309 308 310 313 318 318 321 319 313 289 272 277 286 304 245 234 259 283 319 336 334 326 314 297
279 302 283 290 300 313 310 305 302 302 299 294 299 307 302 308 319 319 310 308 312 316 317 321 323 317 318 318 311 296 289 290 295 252 246 245 244 254 253 278 308 312 314 311
302 294 273 303 320 323 322 325 321 315 322 327 328 320 319 315 316 318 321 328 335 336 333 334 328 319 326 328 319 304 296 285 269 250 248 256 266 274 274 277 283 295 313 316
302 294 295 306 307 313 324 320 308 306 317 319 324 321 316 315 321 330 338 351 355 337 333 333 320 314 324 328 320 308 292 296 291 262 245 241 244 248 262 276 285 289 296 304
302 293 301 300 300 304 302 300 295 297 308 311 312 321 332 338 337 335 338 343 341 327 327 323 315 317 323 320 307 295 289 289 299 298 275 259 244 241 253 263 272 283 288 293
258 268 271 277 281 288 296 306 312 312 308 311 325 335 334 328 318 321 327 335 338 333 327 315 314 321 326 319 299 295 291 282 281 276 275 271 260 247 255 262 270 276 289 296
313 303 308 313 305 293 294 300 306 313 322 330 330 324 322 320 316 318 328 337 331 320 319 322 329 337 326 315 310 291 281 277 278 278 277 283 289 270 256 257 262 267 274 282
341 335 335 338 341 324 311 315 326 332 334 340 337 332 328 325 324 320 320 310 294 289 306 318 320 317 308 303 308 297 287 277 271 273 275 271 279 284 274 272 271 271 274 275
333 336 340 343 344 343 337 333 328 322 330 341 328 310 306 310 313 307 306 303 308 310 314 319 322 310 302 296 302 292 287 287 280 274 273 270 271 272 271 271 274 276 276 277
332 334 335 339 343 338 340 341 331 325 331 330 325 319 315 312 309 298 274 271 298 315 318 308 306 304 306 308 300 292 282 283 281 273 267 263 263 265 267 268 268 271 271 269
334 335 335 334 329 326 334 337 331 323 313 310 308 303 296 295 299 297 300 299 298 308 314 303 302 306 309 314 295 284 277 269 268 266 261 256 254 255 260 263 263 265 267 268
337 340 335 332 339 342 331 326 325 317 302 296 290 286 288 296 296 282 283 310 315 311 307 305 310 313 319 324 299 282 273 266 262 261 257 254 253 254 257 259 262 264 265 266
332 332 335 339 336 323 320 326 327 323 320 313 309 304 289 278 284 298 302 302 307 312 310 311 314 316 321 308 296 287 280 271 264 259 250 254 256 257 257 258 260 264 266 266
326 320 313 312 312 321 325 322 317 317 320 319 316 310 304 301 297 297 298 297 295 306 308 301 302 304 300 294 288 285 281 287 292 286 272 265 260 259 259 261 262 262 264 265
334 331 328 329 336 334 326 321 318 317 317 310 305 308 312 311 308 308 305 302 301 300 296 295 294 292 293 290 286 282 280 277 274 272 271 267 264 261 260 260 261 263 264 265